| time (UTC) | temp F | wind direction | speed MPH | gust MPH | rain 1hr in | rain 24hr in | rain mn in | humidity % | barometer mb |
| 20260504201506 | 63 | 328 | 4.0 | 10.0 | 0.00 | 0.01 | 0.01 | 50 | 1005.1 |
| 20260504200006 | 62 | 34 | 2.0 | 10.0 | 0.00 | 0.01 | 0.01 | 55 | 1005.2 |
| 20260504194600 | 62 | 22 | 4.0 | 17.0 | 0.00 | 0.01 | 0.01 | 50 | 1005.4 |
| 20260504193058 | 60 | 31 | 8.0 | 13.0 | 0.00 | 0.01 | 0.01 | 52 | 1005.6 |
| 20260504191605 | 59 | 40 | 5.0 | 10.0 | 0.00 | 0.01 | 0.01 | 57 | 1005.8 |
| 20260504190107 | 57 | 49 | 3.0 | 11.0 | 0.00 | 0.01 | 0.01 | 60 | 1005.9 |
| 20260504184552 | 56 | 43 | 1.0 | 5.0 | 0.00 | 0.01 | 0.01 | 70 | 1006.0 |
| 20260504183056 | 56 | 311 | 4.0 | 9.0 | 0.00 | 0.01 | 0.01 | 68 | 1006.1 |
| 20260504181555 | 54 | 295 | 1.0 | 4.0 | 0.00 | 0.01 | 0.01 | 74 | 1006.3 |
| 20260504180057 | 54 | 307 | 1.0 | 6.0 | 0.00 | 0.01 | 0.01 | 76 | 1006.4 |
| 20260504174550 | 54 | 16 | 2.0 | 8.0 | 0.01 | 0.01 | 0.01 | 72 | 1006.3 |
| 20260504173049 | 52 | 20 | 1.0 | 6.0 | 0.01 | 0.01 | 0.01 | 78 | 1006.5 |
| 20260504171547 | 51 | 89 | 1.0 | 4.0 | 0.01 | 0.01 | 0.01 | 80 | 1006.7 |
| 20260504081546 | 30 | 155 | 0.0 | 0.0 | 0.00 | 0.00 | 0.00 | 88 | 1007.8 |
| 20260504050021 | 34 | 153 | 0.0 | 0.0 | 0.00 | 0.00 | 0.00 | 81 | 1007.6 |
| 20260504044517 | 35 | 153 | 0.0 | 0.0 | 0.00 | 0.00 | 0.00 | 78 | 1007.6 |
| 20260504043015 | 36 | 153 | 0.0 | 0.0 | 0.00 | 0.00 | 0.00 | 76 | 1007.6 |
| 20260504041511 | 37 | 152 | 0.0 | 0.0 | 0.00 | 0.00 | 0.00 | 74 | 1007.5 |
| 20260504040007 | 39 | 160 | 0.0 | 0.0 | 0.00 | 0.00 | 0.00 | 70 | 1007.3 |
| 20260504034505 | 42 | 194 | 0.0 | 5.0 | 0.00 | 0.00 | 0.00 | 64 | 1007.3 |
| 20260504033008 | 41 | 321 | 2.0 | 5.0 | 0.00 | 0.00 | 0.00 | 68 | 1007.3 |
| 20260504031506 | 38 | 72 | 0.0 | 4.0 | 0.00 | 0.00 | 0.00 | 74 | 1007.1 |
| 20260504030006 | 38 | 206 | 0.0 | 1.0 | 0.00 | 0.00 | 0.00 | 74 | 1007.2 |
| 20260504024503 | 36 | 180 | 0.0 | 0.0 | 0.00 | 0.00 | 0.00 | 78 | 1007.3 |
| 20260504023003 | 36 | 174 | 0.0 | 0.0 | 0.00 | 0.00 | 0.00 | 78 | 1007.5 |
| 20260504021600 | 36 | 143 | 0.0 | 0.0 | 0.00 | 0.00 | 0.00 | 77 | 1007.4 |
| 20260504020056 | 37 | 139 | 0.0 | 0.0 | 0.00 | 0.00 | 0.00 | 75 | 1007.3 |
| 20260504014604 | 37 | 174 | 0.0 | 0.0 | 0.00 | 0.00 | 0.00 | 74 | 1007.3 |
| 20260504013057 | 38 | 181 | 0.0 | 0.0 | 0.00 | 0.00 | 0.00 | 72 | 1007.2 |
| 20260504011552 | 39 | 189 | 0.0 | 0.0 | 0.00 | 0.00 | 0.00 | 70 | 1007.1 |
| 20260504010049 | 40 | 192 | 0.0 | 0.0 | 0.00 | 0.00 | 0.00 | 66 | 1007.0 |
| 20260504004548 | 42 | 213 | 0.0 | 3.0 | 0.00 | 0.01 | 0.00 | 61 | 1006.8 |
| 20260504003052 | 44 | 329 | 2.0 | 8.0 | 0.00 | 0.01 | 0.00 | 63 | 1006.5 |
| 20260504001546 | 44 | 46 | 2.0 | 11.0 | 0.00 | 0.01 | 0.00 | 61 | 1006.3 |
| 20260504000112 | 45 | 329 | 4.0 | 12.0 | 0.00 | 0.01 | 0.00 | 60 | 1006.2 |
| 20260503234552 | 45 | 356 | 6.0 | 13.0 | 0.00 | 0.01 | 0.00 | 57 | 1006.1 |
| 20260503233044 | 45 | 134 | 4.0 | 12.0 | 0.00 | 0.01 | 0.00 | 58 | 1005.9 |
| 20260503231543 | 46 | 323 | 7.0 | 14.0 | 0.00 | 0.01 | 0.00 | 56 | 1005.8 |
| 20260503230042 | 46 | 360 | 3.0 | 9.0 | 0.00 | 0.01 | 0.00 | 54 | 1005.6 |
| 20260503224542 | 46 | 287 | 3.0 | 10.0 | 0.00 | 0.01 | 0.00 | 57 | 1005.5 |
| 20260503223042 | 47 | 20 | 4.0 | 13.0 | 0.00 | 0.01 | 0.00 | 55 | 1005.4 |
| 20260503221549 | 47 | 354 | 6.0 | 12.0 | 0.00 | 0.01 | 0.00 | 51 | 1005.1 |
| 20260503220040 | 47 | 263 | 6.0 | 16.0 | 0.00 | 0.01 | 0.00 | 54 | 1005.0 |
| 20260503214543 | 48 | 285 | 6.0 | 19.0 | 0.00 | 0.01 | 0.00 | 49 | 1005.0 |
| 20260503213038 | 48 | 354 | 9.0 | 22.0 | 0.00 | 0.01 | 0.00 | 50 | 1004.9 |
| 20260503211539 | 49 | 338 | 9.0 | 19.0 | 0.00 | 0.01 | 0.00 | 49 | 1004.8 |
| 20260503210036 | 50 | 360 | 8.0 | 20.0 | 0.00 | 0.01 | 0.00 | 47 | 1004.7 |
| 20260503204535 | 50 | 335 | 8.0 | 22.0 | 0.00 | 0.01 | 0.00 | 50 | 1004.6 |
| 20260503203049 | 50 | 9 | 9.0 | 19.0 | 0.00 | 0.01 | 0.00 | 48 | 1004.5 |